When you browse on this site, cookies collect data to enhance your experience and personalize the content and advertising you see.
Visit our Privacy Policy to learn more. By continuing to use the site, you agree to this use of cookies and data.
  • In France
  • List of Countries
  • For 7 days
  • Water Temperature
  • Weather Map
  • Weather Widgets
  • user-avatar
    Login

    Hourly Weather Dorchester

    Today, 26 August, Monday

    Time Temperature Precipitation Wind Pressure Humidity
    00:00 +20°C° 0 mm 1 mps 759 mmHg 81%
    01:00 +19°C° 0 mm 1 mps 759 mmHg 81%
    02:00 +19°C° 0 mm 1 mps 759 mmHg 82%
    03:00 +19°C° 0 mm 1 mps 759 mmHg 82%
    04:00 +19°C° 0 mm 1 mps 759 mmHg 82%
    05:00 +19°C° 0 mm 1 mps 759 mmHg 82%
    06:00 +19°C° 0 mm 1 mps 759 mmHg 83%
    07:00 +19°C° 0 mm 0 mps 759 mmHg 76%
    08:00 +20°C° 0 mm 0 mps 759 mmHg 69%
    09:00 +22°C° 0 mm 0 mps 759 mmHg 62%
    10:00 +26°C° 0 mm 1 mps 759 mmHg 57%
    11:00 +27°C° 0 mm 1 mps 759 mmHg 52%
    12:00 +29°C° 0 mm 2 mps 759 mmHg 47%
    13:00 +29°C° 0 mm 2 mps 758 mmHg 45%
    14:00 +30°C° 0 mm 2 mps 758 mmHg 44%
    15:00 +30°C° 0 mm 2 mps 757 mmHg 42%
    16:00 +29°C° 0 mm 2 mps 757 mmHg 47%
    17:00 +28°C° 0 mm 2 mps 757 mmHg 52%
    18:00 +27°C° 0 mm 2 mps 757 mmHg 57%
    19:00 +25°C° 0 mm 2 mps 757 mmHg 63%
    20:00 +23°C° 0 mm 2 mps 757 mmHg 70%
    21:00 +20°C° 0 mm 2 mps 757 mmHg 76%
    22:00 +20°C° 0 mm 2 mps 757 mmHg 79%
    23:00 +20°C° 0 mm 1 mps 757 mmHg 82%

    Tomorrow, 27 August, Tuesday

    Time Temperature Precipitation Wind Pressure Humidity
    00:00 +20°C° 0 mm 1 mps 757 mmHg 85%
    01:00 +20°C° 0 mm 1 mps 757 mmHg 85%
    02:00 +17°C° 0 mm 0 mps 757 mmHg 86%
    03:00 +17°C° 0 mm 0 mps 756 mmHg 87%
    04:00 +19°C° 0 mm 1 mps 756 mmHg 86%
    05:00 +19°C° 0 mm 1 mps 756 mmHg 86%
    06:00 +18°C° 0 mm 2 mps 756 mmHg 86%
    07:00 +19°C° 0.1 mm 2 mps 756 mmHg 82%
    08:00 +20°C° 0.1 mm 3 mps 756 mmHg 79%
    09:00 +21°C° 0.1 mm 3 mps 757 mmHg 75%
    10:00 +22°C° 0 mm 3 mps 756 mmHg 71%
    11:00 +24°C° 0 mm 2 mps 756 mmHg 66%
    12:00 +26°C° 0 mm 1 mps 756 mmHg 62%
    13:00 +25°C° 0 mm 2 mps 756 mmHg 63%
    14:00 +25°C° 0 mm 2 mps 756 mmHg 65%
    15:00 +25°C° 0 mm 2 mps 756 mmHg 67%
    16:00 +24°C° 0.1 mm 2 mps 755 mmHg 70%
    17:00 +23°C° 0.1 mm 2 mps 755 mmHg 74%
    18:00 +21°C° 0.1 mm 2 mps 755 mmHg 78%
    19:00 +21°C° 0.1 mm 2 mps 755 mmHg 81%
    20:00 +21°C° 0.1 mm 1 mps 756 mmHg 83%
    21:00 +20°C° 0.1 mm 1 mps 756 mmHg 86%
    22:00 +20°C° 0 mm 1 mps 756 mmHg 85%
    23:00 +19°C° 0 mm 1 mps 756 mmHg 84%

    Day after tomorrow, 28 August, Wednesday

    Time Temperature Precipitation Wind Pressure Humidity
    00:00 +19°C° 0 mm 1 mps 755 mmHg 83%
    01:00 +19°C° 0 mm 1 mps 755 mmHg 81%
    02:00 +19°C° 0 mm 1 mps 755 mmHg 79%
    03:00 +19°C° 0 mm 1 mps 755 mmHg 77%
    04:00 +18°C° 0.1 mm 1 mps 755 mmHg 77%
    05:00 +18°C° 0.1 mm 1 mps 755 mmHg 76%
    06:00 +18°C° 0.1 mm 1 mps 754 mmHg 76%
    07:00 +19°C° 0 mm 1 mps 755 mmHg 75%
    08:00 +20°C° 0 mm 1 mps 755 mmHg 73%
    09:00 +20°C° 0 mm 1 mps 755 mmHg 72%
    10:00 +21°C° 0 mm 2 mps 755 mmHg 68%
    11:00 +23°C° 0 mm 2 mps 755 mmHg 64%
    12:00 +24°C° 0 mm 3 mps 755 mmHg 61%
    13:00 +25°C° 0 mm 4 mps 754 mmHg 58%
    14:00 +25°C° 0 mm 4 mps 754 mmHg 55%
    15:00 +26°C° 0 mm 5 mps 754 mmHg 52%
    16:00 +23°C° 0 mm 4 mps 754 mmHg 58%
    17:00 +21°C° 0 mm 4 mps 754 mmHg 64%
    18:00 +19°C° 0 mm 4 mps 754 mmHg 70%
    19:00 +19°C° 0 mm 4 mps 754 mmHg 72%
    20:00 +18°C° 0 mm 3 mps 755 mmHg 75%
    21:00 +17°C° 0 mm 3 mps 755 mmHg 77%
    22:00 +17°C° 0 mm 3 mps 755 mmHg 82%
    23:00 +17°C° 0 mm 4 mps 756 mmHg 86%

    29 August, Thursday

    Time Temperature Precipitation Wind Pressure Humidity
    00:00 +15°C° 0 mm 4 mps 756 mmHg 90%
    01:00 +14°C° 0 mm 4 mps 756 mmHg 89%
    02:00 +13°C° 0 mm 4 mps 756 mmHg 88%
    03:00 +12°C° 0 mm 4 mps 756 mmHg 87%
    04:00 +12°C° 0 mm 3 mps 757 mmHg 87%
    05:00 +12°C° 0 mm 3 mps 757 mmHg 87%
    06:00 +11°C° 0 mm 3 mps 758 mmHg 86%
    07:00 +13°C° 0 mm 3 mps 758 mmHg 79%
    08:00 +15°C° 0 mm 4 mps 759 mmHg 72%
    09:00 +17°C° 0 mm 4 mps 759 mmHg 66%
    10:00 +18°C° 0 mm 4 mps 759 mmHg 59%
    11:00 +19°C° 0 mm 4 mps 759 mmHg 52%
    12:00 +21°C° 0 mm 3 mps 760 mmHg 46%
    13:00 +21°C° 0 mm 4 mps 760 mmHg 47%
    14:00 +21°C° 0 mm 4 mps 760 mmHg 49%
    15:00 +21°C° 0 mm 5 mps 760 mmHg 50%
    16:00 +20°C° 0 mm 4 mps 760 mmHg 55%
    17:00 +19°C° 0 mm 4 mps 760 mmHg 59%
    18:00 +18°C° 0 mm 4 mps 760 mmHg 64%
    19:00 +16°C° 0 mm 3 mps 760 mmHg 69%
    20:00 +14°C° 0 mm 3 mps 761 mmHg 74%
    21:00 +13°C° 0 mm 3 mps 761 mmHg 78%
    22:00 +13°C° 0 mm 2 mps 761 mmHg 81%
    23:00 +13°C° 0 mm 2 mps 761 mmHg 83%

    30 August, Friday

    Time Temperature Precipitation Wind Pressure Humidity
    00:00 +12°C° 0 mm 2 mps 761 mmHg 86%
    01:00 +12°C° 0 mm 2 mps 761 mmHg 88%
    02:00 +12°C° 0 mm 2 mps 761 mmHg 89%
    03:00 +10°C° 0 mm 2 mps 760 mmHg 91%
    04:00 +10°C° 0 mm 2 mps 760 mmHg 91%
    05:00 +10°C° 0 mm 2 mps 760 mmHg 90%
    06:00 +10°C° 0 mm 2 mps 760 mmHg 89%
    07:00 +12°C° 0 mm 3 mps 760 mmHg 83%
    08:00 +14°C° 0 mm 4 mps 760 mmHg 76%
    09:00 +15°C° 0 mm 4 mps 760 mmHg 70%
    10:00 +16°C° 0 mm 5 mps 760 mmHg 68%
    11:00 +17°C° 0 mm 5 mps 760 mmHg 66%
    12:00 +19°C° 0 mm 5 mps 760 mmHg 64%
    13:00 +20°C° 0 mm 5 mps 760 mmHg 65%
    14:00 +20°C° 0 mm 5 mps 759 mmHg 65%
    15:00 +20°C° 0 mm 5 mps 759 mmHg 66%
    16:00 +19°C° 0 mm 5 mps 759 mmHg 69%
    17:00 +19°C° 0 mm 4 mps 758 mmHg 72%
    18:00 +18°C° 0 mm 4 mps 758 mmHg 75%
    19:00 +17°C° 0 mm 4 mps 758 mmHg 79%
    20:00 +15°C° 0 mm 4 mps 758 mmHg 82%
    21:00 +14°C° 0 mm 4 mps 758 mmHg 86%
    22:00 +14°C° 0 mm 5 mps 757 mmHg 88%
    23:00 +14°C° 0 mm 5 mps 756 mmHg 90%

    31 August, Saturday

    Time Temperature Precipitation Wind Pressure Humidity
    00:00 +14°C° 0 mm 5 mps 756 mmHg 92%
    01:00 +14°C° 0 mm 5 mps 755 mmHg 91%
    02:00 +14°C° 0 mm 5 mps 755 mmHg 90%
    03:00 +14°C° 0 mm 6 mps 754 mmHg 89%
    04:00 +14°C° 0 mm 6 mps 754 mmHg 87%
    05:00 +15°C° 0 mm 6 mps 754 mmHg 85%
    06:00 +15°C° 0 mm 6 mps 754 mmHg 84%
    07:00 +15°C° 0.2 mm 6 mps 754 mmHg 86%
    08:00 +16°C° 0.2 mm 6 mps 754 mmHg 88%
    09:00 +16°C° 0.2 mm 6 mps 754 mmHg 90%
    10:00 +16°C° 0.2 mm 5 mps 754 mmHg 88%
    11:00 +17°C° 0.2 mm 5 mps 754 mmHg 85%
    12:00 +18°C° 0.2 mm 4 mps 754 mmHg 83%
    13:00 +19°C° 0.1 mm 5 mps 754 mmHg 73%
    14:00 +19°C° 0.1 mm 5 mps 754 mmHg 63%
    15:00 +20°C° 0.1 mm 6 mps 754 mmHg 52%
    16:00 +19°C° 0 mm 5 mps 754 mmHg 57%
    17:00 +17°C° 0 mm 5 mps 754 mmHg 61%
    18:00 +16°C° 0 mm 5 mps 755 mmHg 65%
    19:00 +15°C° 0 mm 4 mps 755 mmHg 69%
    20:00 +13°C° 0 mm 4 mps 756 mmHg 73%
    21:00 +12°C° 0 mm 4 mps 756 mmHg 76%
    22:00 +12°C° 0 mm 4 mps 756 mmHg 79%
    23:00 +11°C° 0 mm 4 mps 756 mmHg 82%
    Show more